CW0133 Weather Reports


Display with metric or nautical units.
time (UTC)temp
F
wind
direction
speed
MPH
gust
MPH
rain 1hr
in
rain 24hr
in
rain mn
in
humidity
%
barometer
mb
20260901092504 78 176 1.0 2.0 0.00 0.00 0.00 82 1017.0
20260901092025 78 176 1.0 4.0 0.00 0.00 0.00 82 1017.0
20260901091504 78 176 2.0 4.0 0.00 0.00 0.00 82 1016.9
20260901091003 78 176 1.0 2.0 0.00 0.00 0.00 82 1016.9
20260901090504 78 176 1.0 2.0 0.00 0.00 0.00 81 1016.9
20260901090004 78 176 1.0 4.0 0.00 0.00 0.00 81 1016.8
20260901085504 78 176 1.0 4.0 0.00 0.00 0.00 80 1016.7
20260901085004 78 176 1.0 4.0 0.00 0.00 0.00 80 1016.7
20260901084504 78 176 1.0 4.0 0.00 0.00 0.00 80 1016.7
20260901084004 79 176 1.0 2.0 0.00 0.00 0.00 79 1016.7
20260901083504 79 176 1.0 2.0 0.00 0.00 0.00 79 1016.7
20260901083025 79 176 1.0 2.0 0.00 0.00 0.00 79 1016.7
20260901082504 79 176 1.0 2.0 0.00 0.00 0.00 79 1016.7
20260901082003 79 176 1.0 4.0 0.00 0.00 0.00 79 1016.8
20260901081504 79 176 1.0 4.0 0.00 0.00 0.00 78 1016.8
20260901081004 80 176 2.0 4.0 0.00 0.00 0.00 78 1016.8
20260901080504 80 176 2.0 4.0 0.00 0.00 0.00 77 1016.9
20260901080004 80 176 2.0 4.0 0.00 0.00 0.00 76 1017.0
20260901075504 80 176 1.0 2.0 0.00 0.00 0.00 76 1017.0
20260901075004 80 176 1.0 2.0 0.00 0.00 0.00 76 1016.9
20260901074504 80 176 1.0 4.0 0.00 0.00 0.00 76 1017.0
20260901074024 80 176 1.0 4.0 0.00 0.00 0.00 76 1017.0
20260901073504 80 176 1.0 2.0 0.00 0.00 0.00 75 1016.9
20260901073003 81 176 1.0 4.0 0.00 0.00 0.00 75 1016.9
20260901072504 81 175 2.0 6.0 0.00 0.00 0.00 75 1016.8
20260901072025 81 173 2.0 6.0 0.00 0.00 0.00 75 1016.7
20260901071524 81 171 2.0 5.0 0.00 0.00 0.00 73 1016.7
20260901071025 81 171 1.0 5.0 0.00 0.00 0.00 73 1016.8
20260901070504 81 171 2.0 5.0 0.00 0.00 0.00 73 1016.8
20260901070004 82 171 2.0 5.0 0.00 0.00 0.00 73 1016.7
20260901065504 82 172 2.0 4.0 0.00 0.00 0.00 72 1016.6
20260901065003 82 173 2.0 4.0 0.00 0.00 0.00 72 1016.6
20260901064525 82 173 2.0 5.0 0.00 0.00 0.00 72 1016.5
20260901064003 82 155 2.0 5.0 0.00 0.00 0.00 71 1016.5
20260901063504 82 136 2.0 6.0 0.00 0.00 0.00 71 1016.6
20260901063004 83 130 4.0 6.0 0.00 0.00 0.00 71 1016.6
20260901062504 83 140 2.0 6.0 0.00 0.00 0.00 70 1016.5
20260901062003 83 159 2.0 6.0 0.00 0.00 0.00 70 1016.5
20260901061525 83 147 4.0 8.0 0.00 0.00 0.00 70 1016.4
20260901061004 83 147 4.0 8.0 0.00 0.00 0.00 70 1016.3
20260901060504 83 165 5.0 7.0 0.00 0.00 0.00 70 1016.4
20260901060003 83 167 5.0 8.0 0.00 0.00 0.00 69 1016.2
20260901055503 84 166 4.0 8.0 0.00 0.00 0.00 69 1016.2
20260901055004 84 163 4.0 8.0 0.00 0.00 0.00 68 1016.3
20260901054524 84 166 4.0 8.0 0.00 0.00 0.00 68 1016.3
20260901054004 84 166 5.0 8.0 0.00 0.00 0.00 68 1016.2
20260901053504 84 157 4.0 8.0 0.00 0.00 0.00 68 1016.3
20260901053003 84 152 5.0 8.0 0.00 0.00 0.00 68 1016.2
20260901052524 84 156 5.0 8.0 0.00 0.00 0.00 67 1016.2
20260901052025 84 159 5.0 10.0 0.00 0.00 0.00 67 1016.2
20260901051504 85 155 6.0 13.0 0.00 0.00 0.00 67 1016.1
20260901051025 85 159 6.0 13.0 0.00 0.00 0.00 67 1016.1
20260901050525 85 162 5.0 13.0 0.00 0.00 0.00 67 1016.2
20260901050004 85 163 4.0 8.0 0.00 0.00 0.00 68 1016.2
20260901045504 85 153 5.0 12.0 0.00 0.00 0.00 67 1016.1
20260901045003 86 149 5.0 12.0 0.00 0.00 0.00 67 1016.0
20260901044505 86 147 4.0 8.0 0.00 0.00 0.00 67 1016.1
20260901044004 86 145 5.0 11.0 0.00 0.00 0.00 67 1016.0
20260901043504 86 148 5.0 11.0 0.00 0.00 0.00 67 1016.0
20260901043004 86 154 5.0 10.0 0.00 0.00 0.00 66 1016.0
20260901042503 86 155 5.0 10.0 0.00 0.00 0.00 66 1015.9
20260901042003 86 144 5.0 10.0 0.00 0.00 0.00 66 1016.0
20260901041503 86 142 6.0 11.0 0.00 0.00 0.00 65 1015.9
20260901041004 86 138 5.0 11.0 0.00 0.00 0.00 65 1016.0
20260901040504 87 134 5.0 13.0 0.00 0.00 0.00 65 1016.0
20260901040003 87 135 6.0 13.0 0.00 0.00 0.00 64 1015.9
20260901035503 87 138 6.0 13.0 0.00 0.00 0.00 64 1015.9
20260901035004 87 137 6.0 13.0 0.00 0.00 0.00 64 1015.8
20260901034503 87 134 6.0 17.0 0.00 0.00 0.00 64 1015.8
20260901034024 87 137 6.0 17.0 0.00 0.00 0.00 64 1015.8
20260901033503 87 134 6.0 14.0 0.00 0.00 0.00 63 1015.8
20260901033024 87 131 6.0 14.0 0.00 0.00 0.00 63 1015.8
20260901032524 87 131 6.0 12.0 0.00 0.00 0.00 62 1015.8
20260901032003 87 125 5.0 12.0 0.00 0.00 0.00 61 1015.7
20260901031504 87 121 6.0 11.0 0.00 0.00 0.00 61 1015.6
20260901031003 87 118 6.0 11.0 0.00 0.00 0.00 60 1015.5
20260901030503 87 123 6.0 12.0 0.00 0.00 0.00 59 1015.4
20260901030003 87 122 6.0 14.0 0.00 0.00 0.00 58 1015.4
20260901025503 87 119 6.0 14.0 0.00 0.00 0.00 56 1015.3
20260901025003 87 115 5.0 12.0 0.00 0.00 0.00 54 1015.2
20260901024503 87 112 5.0 11.0 0.00 0.00 0.00 53 1015.0
20260901024003 87 120 6.0 11.0 0.00 0.00 0.00 52 1015.0
20260901023503 87 121 5.0 19.0 0.00 0.00 0.00 51 1014.9
20260901023003 88 116 1.0 19.0 0.00 0.00 0.00 50 1014.8
20260901022503 88 117 0.0 2.0 0.00 0.00 0.00 50 1014.6
20260901022024 88 117 0.0 2.0 0.00 0.00 0.00 50 1014.5
20260901021503 89 117 1.0 2.0 0.00 0.00 0.00 49 1014.4
20260901021003 89 113 2.0 6.0 0.00 0.00 0.00 48 1014.4
20260901020503 89 105 2.0 7.0 0.00 0.00 0.00 48 1014.4
20260901020003 89 108 2.0 7.0 0.00 0.00 0.00 47 1014.3
20260901015503 90 111 2.0 6.0 0.00 0.00 0.00 47 1014.2
20260901015004 90 100 2.0 6.0 0.00 0.00 0.00 46 1014.1
20260901014503 91 93 1.0 6.0 0.00 0.00 0.00 46 1014.0
20260901014003 91 93 1.0 6.0 0.00 0.00 0.00 45 1014.0
20260901013503 92 93 0.0 2.0 0.00 0.00 0.00 44 1013.9
20260901013024 92 93 0.0 2.0 0.00 0.00 0.00 44 1013.9
20260901012503 93 93 1.0 4.0 0.00 0.00 0.00 44 1013.9
20260901012003 94 93 1.0 4.0 0.00 0.00 0.00 42 1013.9
20260901011503 94 93 1.0 6.0 0.00 0.00 0.00 42 1013.8
20260901011003 94 92 1.0 6.0 0.00 0.00 0.00 40 1013.8
20260901010503 95 92 1.0 4.0 0.00 0.00 0.00 39 1013.7
20260901010003 95 94 1.0 6.0 0.00 0.00 0.00 39 1013.6
20260901005503 95 97 2.0 6.0 0.00 0.00 0.00 39 1013.6
20260901005003 96 96 2.0 6.0 0.00 0.00 0.00 39 1013.6
20260901004503 96 85 2.0 11.0 0.00 0.00 0.00 38 1013.5
20260901004003 96 96 5.0 12.0 0.00 0.00 0.00 38 1013.6
20260901003503 96 107 7.0 16.0 0.00 0.00 0.00 38 1013.7
20260901003024 96 106 7.0 16.0 0.00 0.00 0.00 38 1013.6
20260901002503 96 104 7.0 16.0 0.00 0.00 0.00 38 1013.6
20260901002003 97 110 6.0 16.0 0.00 0.00 0.00 38 1013.5
20260901001503 97 117 6.0 12.0 0.00 0.00 0.00 38 1013.5
20260901001004 97 125 5.0 11.0 0.00 0.00 0.00 38 1013.4
20260901000504 97 127 4.0 10.0 0.00 0.00 0.00 39 1013.5
20260901000004 97 135 5.0 8.0 0.00 0.00 0.00 39 1013.4
20260831235504 98 144 5.0 12.0 0.00 0.00 0.00 38 1013.4
20260831235004 98 145 5.0 12.0 0.00 0.00 0.00 39 1013.3
20260831234504 98 137 6.0 10.0 0.00 0.00 0.00 39 1013.4
20260831234004 98 122 6.0 13.0 0.00 0.00 0.00 38 1013.4
20260831233504 99 117 5.0 13.0 0.00 0.00 0.00 38 1013.4
20260831233025 99 109 5.0 11.0 0.00 0.00 0.00 38 1013.3
20260831232525 99 106 5.0 11.0 0.00 0.00 0.00 38 1013.4
20260831232004 99 115 5.0 10.0 0.00 0.00 0.00 37 1013.4
20260831231504 99 113 5.0 12.0 0.00 0.00 0.00 36 1013.4
20260831231025 99 106 5.0 13.0 0.00 0.00 0.00 36 1013.5
20260831230525 99 110 6.0 13.0 0.00 0.00 0.00 37 1013.5
20260831230025 99 131 6.0 12.0 0.00 0.00 0.00 37 1013.5
20260831225504 99 146 5.0 12.0 0.00 0.00 0.00 38 1013.7
20260831225004 99 142 4.0 10.0 0.00 0.00 0.00 38 1013.5
20260831224504 99 144 4.0 8.0 0.00 0.00 0.00 37 1013.6
20260831224004 100 129 4.0 8.0 0.00 0.00 0.00 37 1013.6
20260831223504 100 116 6.0 13.0 0.00 0.00 0.00 37 1013.7
20260831223004 101 117 7.0 13.0 0.00 0.00 0.00 35 1013.7
20260831222525 102 115 7.0 13.0 0.00 0.00 0.00 34 1013.8
20260831222004 102 142 6.0 13.0 0.00 0.00 0.00 34 1013.7
20260831221504 103 171 6.0 12.0 0.00 0.00 0.00 35 1013.7
20260831221004 103 174 6.0 12.0 0.00 0.00 0.00 35 1013.7
20260831220504 103 157 6.0 17.0 0.00 0.00 0.00 34 1013.7
20260831220004 103 147 7.0 17.0 0.00 0.00 0.00 35 1013.8
20260831215525 103 158 6.0 14.0 0.00 0.00 0.00 35 1013.8
20260831215004 103 129 5.0 13.0 0.00 0.00 0.00 35 1013.8
20260831214504 103 128 6.0 13.0 0.00 0.00 0.00 36 1013.9
20260831214004 103 154 6.0 13.0 0.00 0.00 0.00 37 1014.1
20260831213504 103 157 4.0 10.0 0.00 0.00 0.00 34 1014.1
20260831213004 103 142 4.0 13.0 0.00 0.00 0.00 34 1014.2
20260831212504 103 132 5.0 13.0 0.00 0.00 0.00 35 1014.2
20260831212004 103 125 5.0 12.0 0.00 0.00 0.00 35 1014.3
20260831211504 103 126 5.0 12.0 0.00 0.00 0.00 36 1014.4
20260831211004 102 156 4.0 12.0 0.00 0.00 0.00 37 1014.6
20260831210504 102 172 5.0 10.0 0.00 0.00 0.00 36 1014.6
20260831210004 102 151 6.0 16.0 0.00 0.00 0.00 36 1014.5
20260831205504 102 161 6.0 16.0 0.00 0.00 0.00 37 1014.8
20260831205025 102 178 6.0 16.0 0.00 0.00 0.00 37 1014.7
20260831204525 101 160 7.0 16.0 0.00 0.00 0.00 37 1015.0
20260831204025 101 151 7.0 16.0 0.00 0.00 0.00 38 1015.2
20260831203525 101 169 8.0 16.0 0.00 0.00 0.00 37 1015.2
20260831203004 101 189 6.0 14.0 0.00 0.00 0.00 40 1015.3
20260831202503 101 178 7.0 16.0 0.00 0.00 0.00 40 1015.4
20260831202004 101 165 8.0 16.0 0.00 0.00 0.00 37 1015.6
20260831201504 102 149 7.0 16.0 0.00 0.00 0.00 37 1015.7
20260831201025 102 141 7.0 16.0 0.00 0.00 0.00 39 1015.7
20260831200525 102 157 7.0 16.0 0.00 0.00 0.00 39 1015.8
20260831200004 101 144 7.0 16.0 0.00 0.00 0.00 39 1015.8
20260831195504 101 115 6.0 16.0 0.00 0.00 0.00 40 1016.0
20260831195004 100 119 5.0 16.0 0.00 0.00 0.00 40 1016.0
20260831194504 101 133 7.0 18.0 0.00 0.00 0.00 40 1015.9
20260831194004 101 150 8.0 18.0 0.00 0.00 0.00 41 1016.2
20260831193504 101 163 6.0 12.0 0.00 0.00 0.00 40 1016.3
20260831193004 100 124 6.0 13.0 0.00 0.00 0.00 42 1016.2
20260831192504 100 116 7.0 13.0 0.00 0.00 0.00 42 1016.3
20260831192004 100 136 6.0 13.0 0.00 0.00 0.00 41 1016.4
20260831191503 100 129 6.0 12.0 0.00 0.00 0.00 42 1016.5
20260831191004 100 131 6.0 14.0 0.00 0.00 0.00 42 1016.6
20260831190504 99 148 6.0 14.0 0.00 0.00 0.00 43 1016.7
20260831190004 99 136 6.0 14.0 0.00 0.00 0.00 42 1016.6
20260831185504 99 127 6.0 14.0 0.00 0.00 0.00 46 1016.7
20260831185003 98 130 5.0 14.0 0.00 0.00 0.00 46 1016.7
20260831184504 98 109 6.0 17.0 0.00 0.00 0.00 46 1016.8
20260831184004 98 121 5.0 17.0 0.00 0.00 0.00 46 1016.9
20260831183524 98 168 6.0 17.0 0.00 0.00 0.00 47 1016.9
20260831183025 98 177 6.0 17.0 0.00 0.00 0.00 45 1017.0
20260831182503 98 159 6.0 12.0 0.00 0.00 0.00 47 1017.0
20260831182003 98 168 5.0 12.0 0.00 0.00 0.00 48 1017.0
20260831181524 97 177 6.0 13.0 0.00 0.00 0.00 48 1017.0
20260831181003 97 170 6.0 13.0 0.00 0.00 0.00 48 1017.1
20260831180503 96 166 5.0 11.0 0.00 0.00 0.00 48 1017.2
20260831180004 96 158 5.0 11.0 0.00 0.00 0.00 48 1017.3
20260831175503 95 137 7.0 17.0 0.00 0.00 0.00 52 1017.3
20260831175003 95 140 7.0 17.0 0.00 0.00 0.00 51 1017.5
20260831174504 95 164 5.0 16.0 0.00 0.00 0.00 51 1017.5
20260831174004 95 161 6.0 14.0 0.00 0.00 0.00 52 1017.5
20260831173504 95 164 5.0 13.0 0.00 0.00 0.00 51 1017.6
20260831173003 95 178 5.0 13.0 0.00 0.00 0.00 54 1017.5
20260831172504 95 156 6.0 16.0 0.00 0.00 0.00 52 1017.7
20260831172024 94 140 5.0 16.0 0.00 0.00 0.00 53 1017.7
20260831171504 94 147 5.0 11.0 0.00 0.00 0.00 57 1017.8
20260831171025 93 146 6.0 12.0 0.00 0.00 0.00 57 1017.9
20260831170504 92 157 5.0 13.0 0.00 0.00 0.00 57 1018.0
20260831170003 92 176 5.0 13.0 0.00 0.00 0.00 58 1018.0
20260831165504 92 153 5.0 12.0 0.00 0.00 0.00 59 1018.1
20260831165003 91 119 6.0 13.0 0.00 0.00 0.00 60 1018.1
20260831164503 91 140 8.0 13.0 0.00 0.00 0.00 60 1018.1
20260831164003 90 150 8.0 13.0 0.00 0.00 0.00 59 1018.1
20260831163503 90 157 7.0 16.0 0.00 0.00 0.00 61 1017.9
20260831163003 90 180 7.0 16.0 0.00 0.00 0.00 63 1018.0
20260831162504 89 179 6.0 16.0 0.00 0.00 0.00 63 1018.0
20260831162003 89 165 6.0 12.0 0.00 0.00 0.00 66 1018.0
20260831161504 89 167 6.0 12.0 0.00 0.00 0.00 66 1018.0
20260831161003 89 175 6.0 13.0 0.00 0.00 0.00 66 1018.0
20260831160503 88 169 5.0 13.0 0.00 0.00 0.00 66 1017.9
20260831160003 88 163 5.0 14.0 0.00 0.00 0.00 68 1017.9
20260831155503 88 155 6.0 14.0 0.00 0.00 0.00 67 1017.9
20260831155003 88 161 7.0 13.0 0.00 0.00 0.00 67 1017.9
20260831154524 88 165 6.0 16.0 0.00 0.00 0.00 68 1017.9
20260831154003 87 169 6.0 16.0 0.00 0.00 0.00 72 1017.8
20260831153503 86 181 6.0 13.0 0.00 0.00 0.00 72 1017.8
20260831153003 86 175 7.0 16.0 0.00 0.00 0.00 75 1017.7
20260831152503 85 167 7.0 16.0 0.00 0.00 0.00 74 1017.6
20260831152004 85 157 6.0 12.0 0.00 0.00 0.00 75 1017.6
20260831151524 85 164 6.0 12.0 0.00 0.00 0.00 76 1017.7
20260831151025 84 176 7.0 14.0 0.00 0.00 0.00 78 1017.6
20260831150503 84 183 6.0 14.0 0.00 0.00 0.00 78 1017.6
20260831150003 84 198 5.0 12.0 0.00 0.00 0.00 79 1017.6
20260831145503 84 191 6.0 13.0 0.00 0.00 0.00 80 1017.5
20260831145003 84 187 6.0 13.0 0.00 0.00 0.00 80 1017.5
20260831144503 83 190 7.0 14.0 0.00 0.00 0.00 82 1017.5
20260831144003 83 176 6.0 14.0 0.00 0.00 0.00 83 1017.5
20260831143524 82 176 6.0 12.0 0.00 0.00 0.00 85 1017.5
20260831143003 81 179 5.0 12.0 0.00 0.00 0.00 86 1017.4
20260831142503 81 153 5.0 8.0 0.00 0.00 0.00 89 1017.4
20260831142003 80 155 5.0 11.0 0.00 0.00 0.00 90 1017.3
20260831141524 80 159 5.0 11.0 0.00 0.00 0.00 91 1017.3
20260831141024 80 167 5.0 10.0 0.00 0.00 0.00 92 1017.3
20260831140503 79 184 5.0 10.0 0.00 0.00 0.00 92 1017.3
20260831140024 79 193 5.0 10.0 0.00 0.00 0.00 92 1017.2
20260831135503 79 185 5.0 10.0 0.00 0.00 0.00 93 1017.2
20260831135004 79 178 4.0 7.0 0.00 0.00 0.00 93 1017.2
20260831134503 78 185 2.0 7.0 0.00 0.00 0.00 93 1017.1
20260831134024 78 172 2.0 7.0 0.00 0.00 0.00 93 1017.1
20260831133503 78 166 4.0 7.0 0.00 0.00 0.00 93 1017.1
20260831133024 78 170 4.0 7.0 0.00 0.00 0.00 93 1017.1
20260831132503 77 174 4.0 7.0 0.00 0.00 0.00 92 1017.1
20260831132003 76 175 2.0 6.0 0.00 0.00 0.00 92 1017.1
20260831131503 76 171 2.0 5.0 0.00 0.00 0.00 91 1017.0
20260831131004 76 169 2.0 5.0 0.00 0.00 0.00 91 1017.0
20260831130503 75 168 1.0 4.0 0.00 0.00 0.00 90 1017.0
20260831130003 75 168 0.0 4.0 0.00 0.00 0.00 89 1016.9
20260831125503 75 168 0.0 1.0 0.00 0.00 0.00 89 1016.8
20260831125024 75 0 0.0 0.0 0.00 0.00 0.00 89 1016.9
20260831124503 75 0 0.0 0.0 0.00 0.00 0.00 89 1016.8
20260831124003 76 0 0.0 0.0 0.00 0.00 0.00 89 1016.8
20260831123524 76 0 0.0 0.0 0.00 0.00 0.00 89 1016.7
20260831123003 76 0 0.0 0.0 0.00 0.00 0.00 89 1016.6
20260831122503 76 0 0.0 0.0 0.00 0.00 0.00 89 1016.6
20260831122024 76 168 0.0 1.0 0.00 0.00 0.00 89 1016.6
20260831121503 76 168 0.0 1.0 0.00 0.00 0.00 89 1016.6
20260831121003 76 0 0.0 0.0 0.00 0.00 0.00 89 1016.6
20260831120504 76 168 0.0 1.0 0.00 0.00 0.00 89 1016.5
20260831120025 77 168 0.0 1.0 0.00 0.00 0.00 89 1016.5
20260831115504 77 168 0.0 1.0 0.00 0.00 0.00 89 1016.6
20260831115004 77 168 0.0 1.0 0.00 0.00 0.00 89 1016.5
20260831114525 77 168 0.0 2.0 0.00 0.00 0.00 89 1016.5
20260831114025 77 168 0.0 2.0 0.00 0.00 0.00 89 1016.6
20260831113504 77 168 0.0 2.0 0.00 0.00 0.00 89 1016.7
20260831113004 77 168 0.0 2.0 0.00 0.00 0.00 89 1016.5
20260831112504 78 0 0.0 0.0 0.00 0.00 0.00 89 1016.6
20260831112004 78 0 0.0 0.0 0.00 0.00 0.00 89 1016.5
20260831111504 78 0 0.0 0.0 0.00 0.00 0.00 89 1016.5
20260831111004 78 168 0.0 2.0 0.00 0.00 0.00 90 1016.4
20260831110504 78 168 1.0 4.0 0.00 0.00 0.00 90 1016.4
20260831110025 78 168 1.0 4.0 0.00 0.00 0.00 90 1016.4
20260831105504 78 168 1.0 4.0 0.00 0.00 0.00 90 1016.2
20260831105004 78 168 2.0 4.0 0.00 0.00 0.00 90 1016.3
20260831104504 78 168 2.0 5.0 0.00 0.00 0.00 90 1016.3
20260831104004 78 169 2.0 6.0 0.00 0.00 0.00 90 1016.3
20260831103525 78 167 2.0 6.0 0.00 0.00 0.00 90 1016.3
20260831103004 78 165 4.0 7.0 0.00 0.00 0.00 90 1016.3
20260831102504 78 167 4.0 7.0 0.00 0.00 0.00 90 1016.3
20260831102004 78 176 4.0 7.0 0.00 0.00 0.00 89 1016.3
20260831101525 78 175 2.0 7.0 0.00 0.00 0.00 89 1016.3
20260831101004 78 167 2.0 6.0 0.00 0.00 0.00 89 1016.4
20260831100504 78 174 2.0 7.0 0.00 0.00 0.00 89 1016.3
20260831100004 78 176 2.0 7.0 0.00 0.00 0.00 88 1016.4
20260831095504 78 177 2.0 6.0 0.00 0.00 0.00 88 1016.4
20260831095004 78 179 2.0 6.0 0.00 0.00 0.00 88 1016.3
20260831094504 78 182 2.0 6.0 0.00 0.00 0.00 88 1016.3
20260831094004 78 184 2.0 6.0 0.00 0.00 0.00 88 1016.3
20260831093525 78 186 2.0 5.0 0.00 0.00 0.00 87 1016.3
20260831093004 78 188 4.0 7.0 0.00 0.00 0.00 87 1016.3